Location: Chuathbaluk
(61.5726°N, 159.2454°W)
Time: 03:06:34
(UTC+00:00)

S-56A Canister/Altair - Pass Details

Date: 05 December 2020
Orbit: 633 x 2499 km, 38.9° (Epoch: 23 January)

Event Time Altitude Azimuth Distance (km) Brightness Sun altitude
Rises 04:19:50 0° 214° (SW) 5,965 12.8 -18.7°
Reaches altitude 10° 04:25:53 10° 198° (SSW) 4,694 11.9 -19.4°
Maximum altitude 04:32:44 17° 165° (SSE) 3,754 11.0 -20.2°
Drops below altitude 10° 04:38:31 10° 130° (SE) 3,853 10.7 -20.9°
Enters shadow 04:38:31 10° 130° (SE) 3,853 10.7 -20.9°
Sets 04:42:42 0° 111° (ESE) 4,487 - -21.4°
